OBJECT G, 61233

Orbit data source: Space-Track

You're viewing an Uncataloged Satellite

Recently launched and/or uncataloged satellites may have evolving metadata. Metadata may include but not limited to: Owner, Maufacturer, Bus, Motor, and Mission.

OBJECT G, 61233 is a satellite owned by Guoxing (CN) in SSO that was launched on Tue, 24 Sep 2024 UTC via a JIELONG-3 launch vehicle from the Yellow Sea Launch Area, China (YSLA). Unknown objects in Earth's orbit typically refer to objects detected orbiting the Earth but have not yet been identified or cataloged. These objects could be anything from previously untracked satellites, spent rocket stages, debris from satellite collisions, or even natural meteoroids temporarily captured by Earth's gravity.

Loading next visibility...
Identifier
61233, 2024-173G
Orbit
SSO
Last TLE update
5 hours ago
Origin
Flag of CNGUOX (CN / PRC)
Manufacturer
GUOX/HISTAR
Mission
Operational Commercial Technology
Bus & Motor
XSD, Unknown motor
Mass
~25 kg wet, ~25 kg dry
Launch date (UTC)
2024-09-24 (7 months ago)
Launch vehicle
JIELONG-3
Launch site
Yellow Sea Launch Area, China (YSLA)
Object type
Unknown
Shape & HBR
Box + 3 Pan, 0.3 m
Radar Cross Section
0.135 m², Medium (>0.1 m² and < 1m²)

Expand to show TLE details & history

TLE from 5 hours ago
0 OBJECT G
1 61233U 24173G   25129.50088781  .00115833  00000-0  14024-2 0  9992
2 61233  97.3725 210.2703 0009646 185.2512 174.8645 15.60231637 34921
Epoch: 2025-05-09T12:01Z
Definitive object data (Epoch: 2025-05-09T12:01:16.706Z)
Latitude
-0.00008°
Longitude
162.39457°
Altitude
396.634 km
Speed
7.669 km/s
True Right ascension
14h 01m 04s
True Declination
0° 00' 00"
Sunlit
Object was in full shadow at TLE epoch
Visualization TLE readout
Latitude
-5.25499°
Longitude
163.27147°
Altitude
397.273 km
Speed
7.668 km/s
Apparent Right ascension
13h 32m 12s
Apparent Declination
-22° 12' 05"
Sunlit
Object is in full shadow
Visualization observer readout
Local Sidereal Time
00:47:29
Azimuth
328.504° NNW
Elevation
-69.902°
Doppler factor
1
Orbital elements
Apogee altitude
390.421 km
Perigee altitude
377.376 km
Semi-major axis
6,762.035 km
Eccentricity
0.0009646
Inclination
97.3725°
RAAN
210.2703°
Arg. of periapsis
185.2512°
True anomaly
174.87438°
Mean anomaly
174.8645°
Eccentric anomaly
174.86944°
Mean motion
3.90326 °/min
BSTAR
0.0014024
Orbital period
92.23 mins
Loading maneuver chart data...
Loading SW <> Apogee altitude chart data...
Loading historical data...
Loading historical data...
Loading historical data...
Loading historical data...
Loading historical data...
Loading historical data...
Loading historical data...

OBJECT G Visibility forecast

Observer location: undefined°, undefined°

Span
Click to sort rows by Start time (UTC) header in descending order
Start Az.
Max El. time (UTC)
Max El. Az.
Max El.
End time (UTC)
End Az.
4 mins2025-05-09 18:43:59.221Z343.637° N2025-05-09 18:45:59.221Z293.34° NW24.973°2025-05-09 18:47:59.221Z234.867° WSW
4 mins2025-05-10 05:05:59.221Z136.319° SSE2025-05-10 05:07:59.221Z56.3° ENE32.925°2025-05-10 05:09:59.221Z6.338° NNE
|